Demopolis Municipal Airport, AL

4:51 PM CST on November 15, 2019 (GMT -0600)
Demopolis Municipal Airport

Weather History for KDYA - September, 2019

Change the Weather History Date:

Monday, September 9, 2019

  Actual Average (KNMM) Record (KNMM)
Temperature  
Mean Temperature 84 °F -  
Max Temperature 98 °F 85 °F 96 °F (2010)
Min Temperature 70 °F 65 °F 53 °F (2011)
Cooling Degree Days 19    
Growing Degree Days 34 (Base 50)    
Moisture  
Dew Point 70 °F    
Average Humidity 65    
Maximum Humidity 100    
Minimum Humidity 32    
Precipitation  
Precipitation 0.00 in - - ()
Sea Level Pressure  
Sea Level Pressure 30.06 in    
Wind  
Wind Speed 1 mph ()    
Max Wind Speed 8 mph    
Max Gust Speed -    
Visibility 6.9 miles    
Events      
Averages and records for this station are not official NWS values.
T = Trace of Precipitation, MM = Missing Value Source: Averaged Metar Reports

Daily Weather History Graph

Daily Weather History Graph

Search for Another Location

Airport or City:

Astronomy

Sep. 09, 2019 Rise Set
Actual Time 6:31 AM CDT 7:06 PM CDT
Civil Twilight 6:06 AM CDT 7:30 PM CDT
Nautical Twilight 5:37 AM CDT 7:59 PM CDT
Astronomical Twilight 5:08 AM CDT 8:29 PM CDT
Moon 4:46 PM CDT (9/9) 2:18 AM CDT (9/9)
Length of Visible Light 13h 23m
Length of Day
12h 34m
Waxing Gibbous, 83% of the Moon is Illuminated
Sep 9
Waxing Gibbous
Sep 13
Full
Sep 21
Last Quarter
Sep 28
New
Oct 5
First Quarter

Hourly Weather History & Observations

Time (CDT) Temp. Heat Index Dew Point Humidity Pressure Visibility Wind Dir Wind Speed Gust Speed Precip Events Conditions
12:15 AM 72.7 °F - 71.4 °F 96% 30.01 in 7.0 mi Calm Calm - N/A   Clear
12:35 AM 72.5 °F - 71.4 °F 96% 30.01 in 7.0 mi Calm Calm - N/A   Clear
12:55 AM 72.5 °F - 71.6 °F 97% 30.02 in 7.0 mi Calm Calm - N/A   Clear
1:15 AM 72.0 °F - 71.6 °F 99% 30.02 in 5.0 mi Calm Calm - N/A   Clear
1:35 AM 71.8 °F - 71.8 °F 100% 30.02 in 5.0 mi Calm Calm - N/A   Clear
1:55 AM 70.9 °F - 70.9 °F 100% 30.02 in 4.0 mi Calm Calm - N/A   Clear
2:15 AM 71.2 °F - 71.2 °F 100% 30.01 in 4.0 mi Calm Calm - N/A   Clear
2:35 AM - - - N/A% 30.02 in 5.0 mi Calm Calm - N/A   Clear
2:55 AM 70.2 °F - 70.2 °F 100% 30.02 in 5.0 mi Calm Calm - N/A   Clear
3:15 AM - - - N/A% 30.02 in 4.0 mi Calm Calm - N/A   Haze
3:35 AM - - - N/A% 30.02 in 3.0 mi Calm Calm - N/A   Clear
3:55 AM - - - N/A% 30.02 in 5.0 mi Calm Calm - N/A   Haze
4:15 AM - - - N/A% 30.03 in 7.0 mi Calm Calm - N/A   Clear
4:35 AM - - - N/A% 30.04 in 4.0 mi Calm Calm - N/A   Haze
4:55 AM - - - N/A% 30.04 in 4.0 mi Calm Calm - N/A   Haze
5:15 AM - - - N/A% 30.05 in 4.0 mi Calm Calm - N/A   Haze
5:35 AM - - - N/A% 30.05 in 4.0 mi Calm Calm - N/A   Haze
5:55 AM - - - N/A% 30.06 in 4.0 mi Calm Calm - N/A   Haze
6:15 AM - - - N/A% 30.06 in 5.0 mi Calm Calm - N/A   Haze
6:35 AM - - - N/A% 30.07 in 5.0 mi Calm Calm - N/A   Haze
6:55 AM - - - N/A% 30.07 in 5.0 mi Calm Calm - N/A   Haze
7:15 AM - - - N/A% 30.08 in 5.0 mi Calm Calm - N/A   Haze
7:35 AM - - - N/A% 30.08 in 5.0 mi Calm Calm - N/A   Haze
7:55 AM - - - N/A% 30.09 in 5.0 mi Calm Calm - N/A   Haze
8:15 AM - - - N/A% 30.09 in 5.0 mi Calm Calm - N/A   Haze
8:35 AM 75.6 °F - 73.2 °F 92% 30.10 in 7.0 mi Calm Calm - N/A   Clear
8:55 AM 77.7 °F - 71.2 °F 80% 30.10 in 7.0 mi NNE 3.5 mph - N/A   Clear
9:15 AM 80.1 °F 83.0 °F 69.6 °F 70% 30.11 in 7.0 mi Calm Calm - N/A   Clear
9:35 AM 81.3 °F 84.5 °F 69.1 °F 66% 30.11 in 5.0 mi Calm Calm - N/A   Haze
9:55 AM 83.3 °F 87.1 °F 69.6 °F 63% 30.11 in 7.0 mi Calm Calm - N/A   Clear
10:15 AM 84.6 °F 88.8 °F 69.8 °F 61% 30.11 in 7.0 mi Calm Calm - N/A   Clear
10:35 AM 86.7 °F 90.3 °F 68.4 °F 54% 30.11 in 7.0 mi Calm Calm - N/A   Clear
10:55 AM 88.5 °F 91.2 °F 66.4 °F 48% 30.11 in 7.0 mi Calm Calm - N/A   Clear
11:15 AM 89.4 °F 93.5 °F 68.5 °F 50% 30.11 in 10.0 mi NNW 3.5 mph - N/A   Clear
11:35 AM 90.7 °F 93.2 °F 66.2 °F 44% 30.10 in 10.0 mi Calm Calm - N/A   Clear
11:55 AM 93.2 °F 95.3 °F 64.9 °F 39% 30.10 in 10.0 mi Calm Calm - N/A   Clear
12:15 PM 93.6 °F 94.2 °F 61.9 °F 35% 30.09 in 10.0 mi North 3.5 mph - N/A   Clear
12:55 PM 95.0 °F 96.0 °F 62.8 °F 34% 30.08 in 7.0 mi North 3.5 mph - N/A   Clear
1:15 PM 95.2 °F 96.8 °F 63.1 °F 35% 30.07 in 10.0 mi ENE 3.5 mph - N/A   Clear
1:35 PM 96.1 °F 97.3 °F 62.8 °F 33% 30.07 in 7.0 mi NW 6.9 mph - N/A   Clear
1:55 PM 95.7 °F 96.7 °F 62.1 °F 33% 30.06 in 7.0 mi NW 4.6 mph - N/A   Clear
2:15 PM 95.7 °F 96.3 °F 61.2 °F 32% 30.06 in 7.0 mi Calm Calm - N/A   Clear
2:35 PM 96.6 °F 97.7 °F 62.4 °F 32% 30.05 in 10.0 mi Calm Calm - N/A   Clear
2:55 PM 97.2 °F 98.6 °F 63.1 °F 32% 30.03 in 10.0 mi NNW 4.6 mph - N/A   Clear
3:15 PM 98.4 °F 100.7 °F 63.7 °F 32% 30.03 in 10.0 mi NE 5.8 mph - N/A   Clear
3:35 PM 97.9 °F 99.8 °F 63.0 °F 32% 30.03 in 7.0 mi NE 3.5 mph - N/A   Clear
3:55 PM 97.7 °F 100.0 °F 63.7 °F 33% 30.02 in 10.0 mi SSE 6.9 mph - N/A   Clear
4:15 PM 96.1 °F 102.3 °F 69.3 °F 42% 30.02 in 7.0 mi SE 8.1 mph - N/A   Clear
4:55 PM 92.5 °F 99.0 °F 70.5 °F 49% 30.02 in 7.0 mi SSE 6.9 mph - N/A   Clear
5:15 PM 91.2 °F 99.1 °F 72.5 °F 54% 30.02 in 7.0 mi SE 3.5 mph - N/A   Clear
5:35 PM 90.1 °F 97.8 °F 72.5 °F 56% 30.03 in 10.0 mi SSE 3.5 mph - N/A   Clear
5:55 PM 89.1 °F 97.0 °F 72.9 °F 59% 30.03 in 10.0 mi South 3.5 mph - N/A   Clear
6:15 PM 88.3 °F 95.9 °F 73.0 °F 60% 30.04 in 7.0 mi Calm Calm - N/A   Clear
6:35 PM 86.9 °F 94.5 °F 73.4 °F 64% 30.04 in 7.0 mi SSW 3.5 mph - N/A   Clear
7:55 PM 82.2 °F 88.5 °F 74.5 °F 77% 30.06 in 10.0 mi Calm Calm - N/A   Clear
8:15 PM 81.1 °F 87.0 °F 74.7 °F 81% 30.07 in 10.0 mi Calm Calm - N/A   Clear
8:35 PM 80.6 °F 85.9 °F 74.7 °F 82% 30.07 in 10.0 mi Calm Calm - N/A   Clear
8:55 PM 80.2 °F 85.2 °F 74.5 °F 83% 30.07 in 10.0 mi Calm Calm - N/A   Clear
9:35 PM 80.6 °F 85.5 °F 73.9 °F 80% 30.09 in 7.0 mi SSW 3.5 mph - N/A   Clear
9:55 PM 80.6 °F 85.4 °F 73.4 °F 79% 30.09 in 7.0 mi Calm Calm - N/A   Clear
10:15 PM 80.6 °F 85.2 °F 73.2 °F 78% 30.09 in 7.0 mi Calm Calm - N/A   Clear
10:35 PM 78.4 °F - 73.4 °F 84% 30.09 in 7.0 mi Calm Calm - N/A   Clear
10:55 PM 77.4 °F - 73.6 °F 88% 30.10 in 7.0 mi Calm Calm - N/A   Clear
11:15 PM 77.0 °F - 73.8 °F 90% 30.10 in 7.0 mi Calm Calm - N/A   Clear
11:35 PM 77.2 °F - 73.9 °F 90% 30.10 in 7.0 mi Calm Calm - N/A   Clear
11:55 PM 77.4 °F - 74.5 °F 91% 30.11 in 7.0 mi Calm Calm - N/A   Clear